This demonstration page uses our WeatherBlox Daily Observations layout. Learn more.

Hourly Observations for July 25, 2017

Temp ( °F °C ) Dew Point ( °F °C ) Humidity (%) Winds ( mph kmh ) Pressure ( in mb ) Visibility ( mi km ) Precip ( " mm )
12:54 am 00:54 Clear 76 24.4 67 19.4 74 74 S 10 17 29.95 1014 10 16.0934 0 0
1:54 am 01:54 Clear 74 23.3 67 19.4 79 79 S 8 13 29.95 1014 10 16.0934 0 0
2:54 am 02:54 Clear 73 22.8 67 19.4 81 81 S 9 15 29.94 1014 10 16.0934 0 0
3:54 am 03:54 Clear 72 22.2 67 19.4 84 84 S 9 15 29.94 1014 10 16.0934 0 0
4:54 am 04:54 Clear 72 22.2 67 19.4 84 84 S 9 15 29.94 1014 10 16.0934 0 0
5:54 am 05:54 Clear 72 22.2 68 20 87 87 S 9 15 29.96 1015 10 16.0934 0 0
6:54 am 06:54 Sunny 71 21.7 68 20 90 90 S 9 15 29.97 1015 9 14.48406 0 0
7:54 am 07:54 Sunny 74 23.3 70 21.1 88 88 S 12 19 29.97 1015 10 16.0934 0 0
8:54 am 08:54 Sunny 80 26.7 71 21.7 74 74 S 10 17 29.97 1015 10 16.0934 0 0
9:54 am 09:54 Sunny 84 28.9 72 22.2 67 67 SSW 9 15 29.97 1015 10 16.0934 0 0
10:54 am 10:54 Sunny 88 31.1 72 22.2 59 59 SSW 10 17 29.96 1015 10 16.0934 0 0
11:54 am 11:54 Sunny 91 32.8 72 22.2 54 54 SW 13 20 29.96 1015 10 16.0934 0 0
12:54 pm 12:54 Sunny 93 33.9 73 22.8 52 52 S 13 20 29.96 1014 10 16.0934 0 0
1:54 pm 13:54 Sunny 95 35 68 20 41 41 SSW 14 22 29.95 1014 10 16.0934 0 0
2:54 pm 14:54 Sunny 96 35.6 68 20 40 40 S 17 28 29.93 1014 10 16.0934 0 0
3:54 pm 15:54 Sunny 97 36.1 68 20 39 39 S 15 24 29.93 1014 10 16.0934 0 0
4:54 pm 16:54 Sunny 96 35.6 66 18.9 37 37 S 17 28 29.91 1013 10 16.0934 0 0
5:54 pm 17:54 Sunny 94 34.4 69 20.6 44 44 S 15 24 29.88 1012 10 16.0934 0 0
6:54 pm 18:54 Sunny 93 33.9 67 19.4 42 42 S 17 28 29.87 1011 10 16.0934 0 0
7:54 pm 19:54 Sunny 91 32.8 67 19.4 45 45 SSE 13 20 29.89 1012 10 16.0934 0 0
8:54 pm 20:54 Clear 88 31.1 68 20 52 52 SSE 13 20 29.88 1012 10 16.0934 0 0
9:54 pm 21:54 Clear 85 29.4 69 20.6 59 59 S 15 24 29.9 1012 10 16.0934 0 0
10:54 pm 22:54 Clear 84 28.9 68 20 59 59 S 14 22 29.92 1013 10 16.0934 0 0
11:54 pm 23:54 Clear 84 28.9 69 20.6 61 61 SSE 14 22 29.92 1013 10 16.0934 0 0

Powered by AerisWeather